カタログに戻る

BREEZE-M DEB

運用中HEO
NORAD 37203·DEBRIS·🇷🇺 Russia

打ち上げ Mar 14, 2008 から Baikonur Cosmodrome

Loading…

次のパス (今後24時間)

TLE

最新Source: Space-Track

元期: Sep 14, 2026, 05:56 UTC

1 37203U 08011H   26257.24740265  .00002337  00000-0  11115+0 0  9990
2 37203  47.8264 194.3004 6199196  87.4516  13.2997  3.23594325185620

AllMySatでBREEZE-M DEBをリアルタイム追跡

Download on the App Store